Location: Ambrosina
(19.9365°S, 43.9833°W)
Time: 02:04:25
(UTC+00:00)

NOSS 3-3 (A) - Pass Details

Date: 11 May 2021
Orbit: 810 x 1402 km, 63.4° (Epoch: 06 June)

Event Time Altitude Azimuth Distance (km) Brightness Sun altitude
Rises 20:57:19 0° 205° (SSW) 3,566 7.1 -7.2°
Reaches altitude 10° 20:59:56 10° 205° (SSW) 2,553 6.3 -7.8°
Maximum altitude 21:05:45 86° 115° (ESE) 838 3.7 -9.1°
Drops below altitude 10° 21:11:11 10° 26° (NNE) 2,386 6.0 -10.3°
Sets 21:13:34 0° 26° (NNE) 3,315 6.7 -10.9°
